[[{"header":{"parameterUnit":"m.s-1","parameterCategory":1,"la1":30.2991,"la2":30.254,"lo1":-89.0895,"lo2":-89.0444,"dy":0.0017,"dx":0.0017,"nx":28,"ny":28,"refTime":"2023-08-31T09:00:00:Z","depth":0,"parameterNumber":2,"parameterNumberName":"U-component_of_WINDS"},"data":[0,0,0,0,0,0,0,0,0,0,0,0,0,0,0,0,0,0,0,0,0,0,0,0,0,0,0,0,0,0,0,0,0,0,0,0,0,0,0,0,0,0,0,0,0,0,0,0,0,0,0,0,0,0,0,0,0,0,-0.2912,-0.291,0,-0.2695,-0.2692,-0.269,-0.2572,-0.2571,-0.2571,-0.2571,-0.2344,-0.2339,-0.2333,0,0,0,0,0,0,0,0,0,0,0,0,0,-0.3222,-0.3217,-0.2912,-0.2909,-0.2907,-0.2695,-0.2692,-0.2689,-0.2572,-0.2571,-0.2571,-0.2571,-0.2346,-0.2339,-0.2332,0,0,0,0,0,0,0,0,0,0,0,0,0,-0.3054,-0.3215,-0.2913,-0.2823,-0.2813,-0.2696,-0.2692,-0.2688,-0.2572,-0.2571,-0.2571,-0.2571,-0.2349,-0.234,-0.2332,-0.2286,0,0,-0.2305,-0.2301,0,0,0,0,0,0,0,0,-0.3064,-0.3043,-0.2839,-0.2829,-0.2817,-0.266,-0.2718,-0.2553,-0.2572,-0.2663,-0.2571,-0.2571,-0.2449,-0.2432,-0.2392,-0.2276,-0.2266,-0.2304,-0.2299,-0.2295,-0.2293,0,0,0,0,0,0,0,-0.3076,-0.3052,-0.2826,-0.2836,-0.2823,-0.2792,-0.2768,-0.2686,-0.2561,-0.2655,-0.2646,-0.2622,-0.2443,-0.2401,-0.2386,-0.2262,-0.2305,-0.2297,-0.2291,-0.2288,-0.2098,-0.2098,0,0,0,0,0,0,-0.3102,-0.3062,-0.2833,-0.2819,-0.2942,-0.2787,-0.276,-0.2711,-0.2562,-0.2539,-0.2623,-0.2618,-0.2416,-0.2397,-0.2378,-0.2315,-0.2295,-0.2287,-0.2282,-0.2098,-0.2098,-0.2098,0,0,0,0,0,0,-0.3109,-0.3083,-0.2842,-0.2938,-0.2905,-0.2782,-0.2728,-0.2707,-0.2664,-0.2537,-0.2514,-0.2603,-0.2415,-0.239,-0.231,-0.2306,-0.2283,-0.2275,-0.2097,-0.2098,-0.2098,-0.219,0,0,0,0,0,0,-0.3119,-0.3086,-0.3069,-0.2939,-0.2901,-0.2779,-0.2728,-0.2703,-0.265,-0.2641,-0.2512,-0.2491,-0.2413,-0.2324,-0.2302,-0.2293,-0.2269,-0.2097,-0.2098,-0.2098,-0.2187,-0.2194,-0.2199,0,0,0,0,0,-0.313,-0.3102,-0.3068,-0.3041,-0.2876,-0.2779,-0.2757,-0.2669,-0.265,-0.2631,-0.2549,-0.2495,-0.231,-0.2317,-0.2291,-0.228,-0.2097,-0.2097,-0.2098,-0.2184,-0.2192,-0.2199,0,0,0,0,0,0,-0.3233,-0.3083,-0.3044,-0.2973,-0.289,-0.2759,-0.2732,-0.268,-0.2599,-0.2594,-0.2488,-0.2459,-0.239,-0.2326,-0.2337,-0.2228,-0.2198,-0.2193,-0.2272,-0.2279,-0.2285,-0.2302,-0.2261,0,0,0,0,0,-0.3248,-0.3183,-0.3055,-0.3005,-0.2965,-0.2856,-0.2811,-0.2751,-0.2659,-0.2623,-0.2535,-0.2448,-0.237,-0.2321,-0.2242,-0.2177,-0.2147,-0.2157,-0.2163,-0.2169,-0.2166,-0.2127,-0.213,-0.2099,-0.2099,-0.2099,0,0,-0.3277,-0.3187,-0.3152,-0.3023,-0.2951,-0.2885,-0.2827,-0.276,-0.2709,-0.2612,-0.2532,-0.2465,-0.236,-0.2288,-0.2252,-0.2233,-0.2168,-0.2169,-0.2175,-0.2168,-0.2128,-0.2131,-0.2134,-0.2099,-0.2099,-0.2099,0,0,-0.3296,-0.3222,-0.3172,-0.3102,-0.2995,-0.2923,-0.2911,-0.2788,-0.2741,-0.2659,-0.2585,-0.2523,-0.2391,-0.2319,-0.2266,-0.226,-0.2207,-0.2237,-0.2269,-0.2233,-0.2235,-0.2237,-0.2235,-0.2236,-0.2235,-0.2235,-0.2235,0,-0.3345,-0.3244,-0.3153,-0.309,-0.3036,-0.2946,-0.2895,-0.283,-0.2703,-0.2667,-0.2648,-0.2481,-0.2404,-0.2315,-0.2314,-0.2273,-0.2256,-0.2251,-0.2243,-0.2243,-0.2243,-0.2241,-0.224,-0.2239,-0.2239,-0.2238,-0.2238,0,-0.331,-0.3242,-0.3214,-0.3095,-0.3037,-0.2981,-0.288,-0.2832,-0.2777,-0.2707,-0.2625,-0.253,-0.2431,-0.2405,-0.235,-0.2308,-0.23,-0.2263,-0.223,-0.2253,-0.2248,-0.2246,-0.2246,-0.2244,-0.2243,-0.2242,0,0,-0.3388,-0.322,-0.3212,-0.3157,-0.3032,-0.2977,-0.2916,-0.2821,-0.2782,-0.2697,-0.2643,-0.2534,-0.25,-0.244,-0.2376,-0.2344,-0.2346,-0.2311,-0.2307,-0.2321,-0.2294,-0.2323,-0.2323,-0.231,-0.2309,-0.2309,-0.2303,0,-0.339,-0.3278,-0.3194,-0.3114,-0.3049,-0.2964,-0.2911,-0.2828,-0.2762,-0.2696,-0.2621,-0.2546,-0.2506,-0.2469,-0.2434,-0.2354,-0.2339,-0.2353,-0.2258,-0.2256,-0.2288,-0.2321,-0.235,-0.2349,-0.2301,-0.23,-0.23,0,-0.3377,-0.3297,-0.3211,-0.3095,-0.3064,-0.3018,-0.2925,-0.2863,-0.2768,-0.2721,-0.2655,-0.2589,-0.2521,-0.2495,-0.2398,-0.241,-0.2366,-0.2321,-0.2318,-0.2306,-0.228,-0.231,-0.2347,-0.2347,-0.2296,-0.2297,-0.2297,0,-0.3443,-0.3314,-0.3246,-0.3201,-0.3063,-0.3033,-0.2974,-0.2878,-0.2827,-0.2744,-0.271,-0.262,-0.2571,-0.2503,-0.2415,-0.2404,-0.2328,-0.2294,-0.2287,-0.229,-0.2275,-0.2277,-0.2306,-0.2247,-0.2247,-0.2247,-0.2247,0,-0.3454,-0.3405,-0.3274,-0.3232,-0.3174,-0.3078,-0.3023,-0.2957,-0.2873,-0.2816,-0.2736,-0.2684,-0.257,-0.2505,-0.2435,-0.2366,-0.2344,-0.2305,-0.2287,-0.2312,-0.2317,-0.2282,-0.228,-0.2247,-0.2247,-0.2247,-0.2247,0,-0.3518,-0.3428,-0.3349,-0.3225,-0.3193,-0.3156,-0.305,-0.3006,-0.2935,-0.2864,-0.2842,-0.273,-0.2649,-0.2554,-0.2441,-0.2394,-0.2331,-0.2305,-0.2364,-0.2354,-0.2353,-0.2354,-0.236,-0.2356,-0.23,-0.2301,-0.2301,0,-0.3532,-0.3492,-0.3365,-0.3323,-0.3266,-0.3198,-0.3145,-0.3049,-0.2997,-0.2887,-0.2856,-0.2769,-0.2694,-0.2568,-0.2476,-0.2389,-0.236,-0.2368,-0.2346,-0.2373,-0.2361,-0.2364,-0.236,-0.2374,-0.2375,-0.2376,-0.2377,0,-0.3565,-0.3523,-0.3451,-0.3364,-0.3304,-0.323,-0.3153,-0.3122,-0.301,-0.2956,-0.2873,-0.2815,-0.2701,-0.2615,-0.2517,-0.2455,-0.2397,-0.2385,-0.2378,-0.2404,-0.2441,-0.2421,-0.2381,-0.2385,-0.2384,-0.2383,-0.2383,-0.2383,-0.3604,-0.3566,-0.3471,-0.3394,-0.3326,-0.3256,-0.3209,-0.3133,-0.3062,-0.2963,-0.291,-0.2828,-0.2733,-0.2596,-0.2536,-0.247,-0.245,-0.2441,-0.2439,-0.2438,-0.2446,-0.2451,-0.2452,-0.2451,-0.2451,-0.2451,-0.245,0,-0.3634,-0.357,-0.35,-0.3395,-0.3334,-0.3287,-0.3199,-0.3151,-0.3081,-0.2998,-0.2927,-0.2832,-0.2748,-0.2651,-0.2561,-0.2527,-0.2498,-0.2507,-0.2508,-0.2495,-0.2468,-0.2483,-0.2532,-0.2532,-0.2532,-0.2532,-0.2532,-0.2532,-0.3643,-0.3575,-0.3522,-0.342,-0.3354,-0.3275,-0.3229,-0.3164,-0.3098,-0.2996,-0.2927,-0.2864,-0.2775,-0.2679,-0.2601,-0.2574,-0.2545,-0.2561,-0.2527,-0.2504,-0.2497,-0.249,-0.2504,-0.2556,-0.2556,-0.2559,-0.2559,-0.2559]},{"header":{"parameterUnit":"m.s-1","parameterCategory":1,"la1":30.2991,"la2":30.254,"lo1":-89.0895,"lo2":-89.0444,"dy":0.0017,"dx":0.0017,"nx":28,"ny":28,"refTime":"2023-08-31T09:00:00:Z","depth":0,"parameterNumber":3,"parameterNumberName":"V-component_of_WINDS"},"data":[0,0,0,0,0,0,0,0,0,0,0,0,0,0,0,0,0,0,0,0,0,0,0,0,0,0,0,0,0,0,0,0,0,0,0,0,0,0,0,0,0,0,0,0,0,0,0,0,0,0,0,0,0,0,0,0,0,0,-1.1972,-1.1972,0,-1.2017,-1.2018,-1.2018,-1.2044,-1.2044,-1.2044,-1.2045,-1.2086,-1.2087,-1.2088,0,0,0,0,0,0,0,0,0,0,0,0,0,-1.1901,-1.1902,-1.1972,-1.1972,-1.1973,-1.2017,-1.2018,-1.2018,-1.2044,-1.2044,-1.2044,-1.2045,-1.2086,-1.2087,-1.2089,0,0,0,0,0,0,0,0,0,0,0,0,0,-1.1937,-1.1902,-1.1971,-1.1991,-1.1993,-1.2017,-1.2018,-1.2019,-1.2044,-1.2044,-1.2044,-1.2045,-1.2086,-1.2087,-1.2089,-1.2095,0,0,-1.2093,-1.2094,0,0,0,0,0,0,0,0,-1.1935,-1.194,-1.1988,-1.199,-1.1992,-1.2025,-1.2008,-1.2044,-1.2044,-1.2025,-1.2045,-1.2045,-1.2066,-1.2069,-1.2077,-1.2097,-1.2099,-1.2093,-1.2094,-1.2095,-1.2096,0,0,0,0,0,0,0,-1.1933,-1.1938,-1.199,-1.1988,-1.1991,-1.1996,-1.2001,-1.2015,-1.2044,-1.2026,-1.2028,-1.2034,-1.2067,-1.2075,-1.2078,-1.2099,-1.2093,-1.2095,-1.2096,-1.2096,-1.2125,-1.2125,0,0,0,0,0,0,-1.1928,-1.1936,-1.1988,-1.1991,-1.1964,-1.1997,-1.2003,-1.2014,-1.2044,-1.2048,-1.2034,-1.2035,-1.2073,-1.2076,-1.208,-1.2089,-1.2095,-1.2096,-1.2097,-1.2126,-1.2125,-1.2125,0,0,0,0,0,0,-1.1926,-1.1932,-1.1986,-1.1964,-1.1971,-1.1998,-1.2011,-1.2015,-1.2024,-1.2049,-1.2054,-1.2037,-1.2073,-1.2077,-1.2091,-1.209,-1.2097,-1.2099,-1.2126,-1.2125,-1.2125,-1.2107,0,0,0,0,0,0,-1.1924,-1.1932,-1.1936,-1.1964,-1.1972,-1.1999,-1.2011,-1.2016,-1.2027,-1.2029,-1.2054,-1.2058,-1.2073,-1.2089,-1.2093,-1.2093,-1.21,-1.2126,-1.2126,-1.2125,-1.2108,-1.2106,-1.2105,0,0,0,0,0,-1.1922,-1.1928,-1.1936,-1.1942,-1.1978,-1.1999,-1.2003,-1.2022,-1.2027,-1.203,-1.2046,-1.2057,-1.209,-1.209,-1.2094,-1.2095,-1.2126,-1.2126,-1.2125,-1.2108,-1.2106,-1.2105,0,0,0,0,0,0,-1.1898,-1.1932,-1.1941,-1.1957,-1.1975,-1.2003,-1.2008,-1.202,-1.2035,-1.2036,-1.2057,-1.2063,-1.2074,-1.2086,-1.2085,-1.2102,-1.2109,-1.2109,-1.2094,-1.2093,-1.2091,-1.2088,-1.2101,0,0,0,0,0,-1.1894,-1.191,-1.1938,-1.1949,-1.1958,-1.1981,-1.1991,-1.2004,-1.2022,-1.203,-1.2046,-1.2063,-1.2076,-1.2085,-1.2099,-1.2109,-1.2114,-1.2111,-1.211,-1.2108,-1.2109,-1.2114,-1.2113,-1.2124,-1.2124,-1.2124,0,0,-1.1888,-1.1908,-1.1917,-1.1945,-1.1961,-1.1974,-1.1988,-1.2002,-1.2011,-1.2031,-1.2046,-1.2058,-1.2077,-1.2089,-1.2095,-1.2099,-1.2107,-1.2108,-1.2107,-1.2108,-1.2114,-1.2113,-1.2112,-1.2124,-1.2124,-1.2124,0,0,-1.1883,-1.19,-1.1911,-1.1926,-1.195,-1.1965,-1.1967,-1.1993,-1.2003,-1.2018,-1.2033,-1.2044,-1.2067,-1.208,-1.209,-1.2087,-1.2098,-1.2091,-1.2084,-1.2088,-1.2088,-1.2087,-1.2086,-1.2085,-1.2091,-1.2091,-1.2091,0,-1.1871,-1.1894,-1.1915,-1.1929,-1.194,-1.1959,-1.197,-1.1983,-1.2008,-1.2015,-1.202,-1.2049,-1.2063,-1.2078,-1.2077,-1.2084,-1.2087,-1.2089,-1.2086,-1.2086,-1.2085,-1.2085,-1.2084,-1.209,-1.209,-1.209,-1.2091,0,-1.1878,-1.1894,-1.1899,-1.1926,-1.1937,-1.1949,-1.197,-1.1979,-1.199,-1.2004,-1.2018,-1.2036,-1.2054,-1.2058,-1.2069,-1.2073,-1.2075,-1.2083,-1.209,-1.2083,-1.2083,-1.2083,-1.2089,-1.2089,-1.209,-1.209,0,0,-1.1861,-1.1898,-1.19,-1.1911,-1.1938,-1.1949,-1.196,-1.1979,-1.1986,-1.2002,-1.2012,-1.2031,-1.2037,-1.2048,-1.206,-1.2064,-1.2061,-1.2071,-1.2072,-1.2069,-1.2067,-1.2061,-1.2061,-1.2068,-1.2068,-1.2068,-1.2065,0,-1.186,-1.1884,-1.1902,-1.1918,-1.1932,-1.195,-1.1959,-1.1975,-1.1988,-1.2,-1.2013,-1.2027,-1.2035,-1.2041,-1.2046,-1.206,-1.2061,-1.2061,-1.2075,-1.2076,-1.2071,-1.2061,-1.2056,-1.2053,-1.2065,-1.2065,-1.2065,0,-1.1862,-1.188,-1.1897,-1.1922,-1.1928,-1.1937,-1.1955,-1.1966,-1.1984,-1.1993,-1.2004,-1.2017,-1.2027,-1.2033,-1.2048,-1.2047,-1.2054,-1.2061,-1.2062,-1.2064,-1.2071,-1.2063,-1.2052,-1.2052,-1.2065,-1.2065,-1.2065,0,-1.1848,-1.1875,-1.1889,-1.1899,-1.1927,-1.1933,-1.1944,-1.1962,-1.1972,-1.1986,-1.1993,-1.2008,-1.2016,-1.2027,-1.2042,-1.2045,-1.2055,-1.2062,-1.2062,-1.2061,-1.2064,-1.2063,-1.2054,-1.2067,-1.2067,-1.2067,-1.2067,0,-1.1845,-1.1855,-1.1883,-1.1892,-1.1903,-1.1923,-1.1933,-1.1946,-1.1961,-1.1971,-1.1986,-1.1995,-1.2015,-1.2025,-1.2037,-1.2047,-1.2051,-1.2057,-1.206,-1.2056,-1.2055,-1.2062,-1.2062,-1.2067,-1.2067,-1.2067,-1.2067,0,-1.1832,-1.1851,-1.1868,-1.1893,-1.1899,-1.1906,-1.1927,-1.1935,-1.1948,-1.1961,-1.1965,-1.1985,-1.1998,-1.2015,-1.2032,-1.204,-1.2049,-1.2053,-1.2044,-1.2045,-1.2044,-1.2044,-1.2039,-1.2039,-1.2051,-1.2051,-1.2051,0,-1.1829,-1.1838,-1.1864,-1.1873,-1.1884,-1.1898,-1.1908,-1.1926,-1.1936,-1.1956,-1.1961,-1.1976,-1.1988,-1.2008,-1.2023,-1.2037,-1.2042,-1.2039,-1.2044,-1.2039,-1.2042,-1.2042,-1.2042,-1.2038,-1.2038,-1.2037,-1.2037,0,-1.1823,-1.1831,-1.1846,-1.1864,-1.1876,-1.189,-1.1905,-1.1911,-1.1932,-1.1942,-1.1956,-1.1966,-1.1984,-1.1998,-1.2013,-1.2023,-1.2033,-1.2035,-1.2036,-1.2032,-1.2026,-1.203,-1.204,-1.2036,-1.2036,-1.2036,-1.2036,-1.2036,-1.1815,-1.1823,-1.1842,-1.1858,-1.1871,-1.1885,-1.1893,-1.1908,-1.1921,-1.1938,-1.1948,-1.1961,-1.1977,-1.1999,-1.2008,-1.2018,-1.2022,-1.2023,-1.2023,-1.2023,-1.2022,-1.2024,-1.2021,-1.2021,-1.2021,-1.2021,-1.2021,0,-1.1809,-1.1822,-1.1836,-1.1857,-1.1869,-1.1878,-1.1895,-1.1904,-1.1916,-1.193,-1.1943,-1.1958,-1.1971,-1.1987,-1.2001,-1.2006,-1.2011,-1.2009,-1.2009,-1.2011,-1.2018,-1.2016,-1.2005,-1.2005,-1.2005,-1.2005,-1.2005,-1.2005,-1.1807,-1.1821,-1.1832,-1.1852,-1.1865,-1.188,-1.1888,-1.19,-1.1912,-1.1929,-1.194,-1.1951,-1.1965,-1.198,-1.1992,-1.1996,-1.2001,-1.1997,-1.2003,-1.2009,-1.2011,-1.2012,-1.201,-1.1998,-1.1998,-1.1995,-1.1995,-1.1995]}]]